W5ZYX Weather Reports


Display with metric or nautical units.
time (UTC)temp
F
wind
direction
speed
MPH
gust
MPH
rain 1hr
in
rain 24hr
in
rain mn
in
humidity
%
barometer
mb
20260507043047 62 355 7.0 14.0 0.00 0.00 0.00 88 1015.8
20260507042536 62 338 5.0 10.0 0.00 0.00 0.00 88 1015.6
20260507042037 62 327 3.0 13.0 0.00 0.00 0.00 88 1015.5
20260507041559 62 355 6.0 14.0 0.00 0.00 0.00 88 1015.3
20260507041038 62 352 9.0 14.0 0.00 0.00 0.00 88 1015.5
20260507040539 62 352 7.0 14.0 0.00 0.00 0.00 88 1015.5
20260507040052 62 360 7.0 12.0 0.00 0.00 0.00 88 1015.4
20260507035535 62 348 7.0 11.0 0.00 0.00 0.00 88 1015.7
20260507035035 62 350 6.0 10.0 0.00 0.00 0.00 88 1015.5
20260507034549 62 9 4.0 9.0 0.00 0.00 0.00 88 1015.5
20260507034035 62 5 5.0 12.0 0.00 0.00 0.00 87 1015.4
20260507033538 62 0 7.0 12.0 0.00 0.00 0.00 87 1015.6
20260507033045 62 360 6.0 13.0 0.00 0.00 0.00 87 1015.3
20260507032537 62 313 5.0 14.0 0.00 0.00 0.00 87 1015.4
20260507032037 62 333 8.0 14.0 0.00 0.00 0.00 87 1015.0
20260507031548 62 336 5.0 13.0 0.00 0.00 0.00 87 1014.8
20260507031039 63 355 8.0 13.0 0.00 0.00 0.00 87 1014.8
20260507030538 63 347 8.0 12.0 0.00 0.00 0.00 87 1014.7
20260507030051 63 352 5.0 12.0 0.00 0.00 0.00 87 1014.5
20260507025535 63 360 4.0 12.0 0.00 0.00 0.00 87 1014.5
20260507025038 63 329 8.0 12.0 0.00 0.00 0.00 87 1014.5
20260507024553 63 340 7.0 12.0 0.00 0.00 0.00 87 1014.3
20260507024036 63 351 5.0 13.0 0.00 0.00 0.00 86 1014.2
20260507023536 63 355 8.0 13.0 0.00 0.00 0.00 86 1013.9
20260507023052 63 20 7.0 13.0 0.00 0.00 0.00 86 1014.0
20260507022536 63 355 7.0 13.0 0.00 0.00 0.00 86 1014.1
20260507022035 63 348 7.0 13.0 0.00 0.00 0.00 86 1013.8
20260507021609 63 355 6.0 13.0 0.00 0.00 0.00 86 1013.8
20260507021036 63 5 9.0 13.0 0.00 0.00 0.00 86 1013.9
20260507020536 63 336 7.0 13.0 0.00 0.00 0.00 86 1013.8
20260507020106 63 346 6.0 13.0 0.00 0.00 0.00 86 1014.0
20260507015538 63 346 7.0 12.0 0.00 0.00 0.00 86 1013.9
20260507015036 63 15 5.0 13.0 0.00 0.00 0.00 86 1013.6
20260507014620 63 346 6.0 13.0 0.00 0.00 0.00 86 1013.6
20260507014036 63 355 6.0 13.0 0.00 0.00 0.00 86 1013.5
20260507013539 63 323 7.0 12.0 0.00 0.00 0.00 86 1013.3
20260507013051 63 340 6.0 12.0 0.00 0.00 0.00 86 1013.2
20260507012539 63 337 5.0 12.0 0.00 0.00 0.00 86 1013.0
20260507012039 63 330 7.0 12.0 0.00 0.00 0.00 86 1013.1
20260507011558 63 349 5.0 12.0 0.00 0.00 0.00 86 1012.8
20260507011035 63 355 6.0 13.0 0.00 0.00 0.00 86 1012.8
20260507010538 63 355 8.0 15.0 0.00 0.00 0.00 85 1012.7
20260507010049 63 350 7.0 15.0 0.00 0.00 0.00 85 1012.5
20260507005536 64 340 9.0 14.0 0.00 0.00 0.00 85 1012.4
20260507005036 64 338 8.0 13.0 0.00 0.00 0.00 85 1012.4
20260507004552 64 350 8.0 12.0 0.00 0.00 0.00 85 1012.5
20260507004037 64 350 5.0 14.0 0.00 0.00 0.00 85 1012.4
20260507003536 64 11 8.0 14.0 0.00 0.00 0.00 85 1012.4
20260507003049 65 325 9.0 14.0 0.00 0.00 0.00 84 1012.3
20260507002538 65 342 8.0 12.0 0.00 0.00 0.00 85 1012.2
20260507002039 65 342 7.0 14.0 0.00 0.00 0.00 84 1012.3
20260507001600 65 328 10.0 14.0 0.00 0.00 0.00 84 1012.1
20260507001039 65 334 8.0 12.0 0.00 0.00 0.00 84 1012.2
20260507000538 66 329 7.0 13.0 0.00 0.00 0.00 84 1012.1
20260506235538 66 337 8.0 15.0 0.00 0.00 0.00 83 1012.1
20260506235038 66 336 9.0 14.0 0.00 0.00 0.00 83 1012.0
20260506234605 67 332 8.0 13.0 0.00 0.00 0.00 83 1011.9
20260506234036 67 5 8.0 15.0 0.00 0.00 0.00 83 1011.8
20260506233540 67 319 8.0 15.0 0.00 0.00 0.00 82 1011.8
20260506233052 67 344 9.0 16.0 0.00 0.00 0.00 82 1011.7
20260506232539 68 330 8.0 16.0 0.00 0.00 0.00 82 1011.7
20260506232039 68 342 10.0 16.0 0.00 0.00 0.00 81 1011.6
20260506231548 68 333 10.0 15.0 0.00 0.00 0.00 81 1011.7
20260506231040 68 346 10.0 15.0 0.00 0.00 0.00 81 1011.8
20260506230538 68 355 9.0 15.0 0.00 0.00 0.00 81 1011.7
20260506230100 69 330 10.0 16.0 0.00 0.00 0.00 81 1011.7
20260506225537 69 319 8.0 16.0 0.00 0.00 0.00 81 1011.6
20260506225038 69 331 10.0 18.0 0.00 0.00 0.00 81 1011.4
20260506224550 69 317 8.0 18.0 0.00 0.00 0.00 81 1011.4
20260506224038 69 306 11.0 18.0 0.00 0.00 0.00 81 1011.4
20260506223536 69 313 5.0 14.0 0.00 0.00 0.00 81 1011.3
20260506223048 69 304 8.0 17.0 0.00 0.00 0.00 81 1011.3
20260506222536 70 360 9.0 17.0 0.00 0.00 0.00 81 1011.1
20260506222036 70 360 9.0 16.0 0.00 0.00 0.00 81 1011.2
20260506221600 70 355 11.0 17.0 0.00 0.00 0.00 81 1011.2
20260506221038 70 355 11.0 18.0 0.00 0.00 0.00 80 1011.1
20260506220540 70 322 10.0 18.0 0.00 0.00 0.00 81 1010.9
20260506220048 70 311 11.0 17.0 0.00 0.00 0.00 81 1010.9
20260506215538 70 351 11.0 16.0 0.00 0.00 0.00 81 1010.9
20260506215036 70 355 8.0 15.0 0.00 0.00 0.00 82 1010.8
20260506214551 70 312 10.0 15.0 0.00 0.00 0.00 82 1010.9
20260506214039 70 351 8.0 16.0 0.00 0.00 0.00 81 1010.9
20260506213539 71 325 8.0 16.0 0.00 0.00 0.00 82 1011.2
20260506213053 71 333 7.0 14.0 0.00 0.00 0.00 82 1011.2
20260506212538 72 323 8.0 16.0 0.00 0.00 0.00 81 1011.0
20260506212037 72 335 9.0 16.0 0.00 0.00 0.00 81 1011.0
20260506211553 73 308 10.0 15.0 0.00 0.00 0.00 82 1011.0
20260506211036 73 336 9.0 14.0 0.00 0.00 0.00 83 1010.8
20260506210536 74 311 8.0 13.0 0.00 0.00 0.00 83 1010.8
20260506210048 74 325 6.0 14.0 0.00 0.00 0.00 84 1010.7
20260506205536 74 317 8.0 14.0 0.00 0.00 0.00 84 1010.7
20260506205036 74 320 7.0 14.0 0.00 0.00 0.00 84 1010.7
20260506204547 75 323 7.0 12.0 0.00 0.00 0.00 83 1010.7
20260506204039 75 336 7.0 12.0 0.00 0.00 0.00 82 1010.8
20260506203536 75 346 8.0 13.0 0.00 0.00 0.00 82 1010.8
20260506203052 75 345 8.0 13.0 0.00 0.00 0.00 81 1010.8
20260506202539 75 344 5.0 10.0 0.00 0.00 0.00 82 1010.8
20260506202040 75 302 7.0 12.0 0.00 0.00 0.00 80 1010.9
20260506201547 76 352 7.0 12.0 0.00 0.00 0.00 80 1010.8
20260506201036 76 336 7.0 11.0 0.00 0.00 0.00 81 1010.7
20260506200538 76 352 6.0 11.0 0.00 0.00 0.00 82 1010.6
20260506200046 76 299 3.0 9.0 0.00 0.00 0.00 84 1010.5
20260506195536 75 20 3.0 8.0 0.00 0.00 0.00 83 1010.4
20260506195036 75 338 4.0 8.0 0.00 0.00 0.00 83 1010.5
20260506194549 74 313 2.0 5.0 0.00 0.00 0.00 83 1010.5
20260506194039 74 22 1.0 4.0 0.00 0.00 0.00 83 1010.5
20260506193539 74 0 0.0 3.0 0.00 0.00 0.00 83 1010.6
20260506193054 73 42 0.0 6.0 0.00 0.00 0.00 83 1010.4
20260506192536 73 119 2.0 6.0 0.00 0.00 0.00 82 1010.3
20260506192036 73 114 3.0 6.0 0.00 0.00 0.00 83 1010.6
20260506191559 72 0 2.0 6.0 0.00 0.00 0.00 83 1010.8
20260506191037 72 103 1.0 4.0 0.00 0.00 0.00 84 1010.9
20260506190537 71 22 1.0 6.0 0.00 0.00 0.00 84 1010.9
20260506190053 71 106 1.0 6.0 0.00 0.00 0.00 84 1011.0
20260506185541 70 84 2.0 7.0 0.00 0.00 0.00 84 1011.0
20260506185038 70 74 3.0 7.0 0.00 0.00 0.00 84 1011.2
20260506184556 69 23 0.0 6.0 0.00 0.00 0.00 85 1011.2
20260506184039 69 89 2.0 11.0 0.00 0.00 0.00 84 1011.2
20260506183538 69 36 2.0 11.0 0.00 0.00 0.00 87 1011.3
20260506183101 68 5 4.0 10.0 0.00 0.00 0.00 87 1011.2
20260506182539 67 111 2.0 10.0 0.00 0.00 0.00 88 1011.3
20260506182035 66 56 4.0 10.0 0.00 0.00 0.00 88 1011.3
20260506181604 66 68 6.0 10.0 0.00 0.00 0.00 88 1011.5
20260506181036 65 10 6.0 13.0 0.00 0.00 0.00 89 1011.6
20260506180539 65 24 9.0 9.0 0.00 0.00 0.00 88 1011.9
20260506180054 0 0.0 0.0 0.00 0.00 0.00 1011.9
20260506175536 0 0.0 0.0 0.00 0.00 0.00 1012.1
20260506175038 0 0.0 0.0 0.00 0.00 0.00 1012.1
20260506174601 0 0.0 0.0 0.00 0.00 0.00 1012.3
20260506174039 0 0.0 0.0 0.00 0.00 0.00 1012.1
20260506173537 64 13.0 17.0 0.00 0.00 0.00 87 1012.7
20260506173122 64 360 16.0 19.0 0.00 0.00 0.00 87 1012.9
20260506172540 64 336 13.0 19.0 0.00 0.00 0.00 87 1013.2
20260506172039 65 9 12.0 18.0 0.00 0.00 0.00 89 1013.2
20260506171557 65 317 9.0 16.0 0.00 0.00 0.00 89 1013.2
20260506171040 65 340 11.0 18.0 0.00 0.00 0.00 88 1013.3
20260506170539 66 327 11.0 18.0 0.00 0.00 0.00 87 1013.5
20260506170105 67 325 12.0 19.0 0.00 0.00 0.00 87 1013.5
20260506165535 68 360 11.0 20.0 0.00 0.00 0.00 87 1013.3
20260506165036 69 320 12.0 20.0 0.00 0.00 0.00 85 1013.3
20260506164551 70 302 13.0 20.0 0.00 0.00 0.00 84 1013.2
20260506164038 73 323 13.0 20.0 0.00 0.00 0.00 81 1012.9
20260506163535 77 333 11.0 20.0 0.00 0.00 0.00 79 1012.8
20260506163058 79 262 1.0 4.0 0.00 0.00 0.00 85 1012.5
20260506162538 79 262 1.0 4.0 0.00 0.00 0.00 85 1012.3
20260506162041 80 232 0.0 4.0 0.00 0.00 0.00 86 1012.3
20260506161546 79 231 0.0 6.0 0.00 0.00 0.00 86 1012.2
20260506161040 79 0 0.0 4.0 0.00 0.00 0.00 85 1012.2
20260506160539 79 238 2.0 5.0 0.00 0.00 0.00 86 1012.0
20260506160053 79 246 1.0 7.0 0.00 0.00 0.00 86 1011.7
20260506155539 79 254 1.0 9.0 0.00 0.00 0.00 87 1011.5
20260506155040 78 155 4.0 9.0 0.00 0.00 0.00 87 1011.4
20260506154608 78 153 3.0 7.0 0.00 0.00 0.00 87 1011.2
20260506154040 78 159 3.0 7.0 0.00 0.00 0.00 88 1011.5
20260506153536 78 162 3.0 9.0 0.00 0.00 0.00 87 1011.4
20260506153046 78 169 2.0 9.0 0.00 0.00 0.00 88 1011.5
20260506152536 78 159 2.0 6.0 0.00 0.00 0.00 88 1011.5
20260506152035 77 182 2.0 6.0 0.00 0.00 0.00 88 1011.4
20260506151552 77 173 3.0 6.0 0.00 0.00 0.00 88 1011.4
20260506151036 77 233 2.0 5.0 0.00 0.00 0.00 88 1011.3
20260506150536 77 280 1.0 4.0 0.00 0.00 0.00 89 1011.3
20260506150044 77 212 2.0 7.0 0.00 0.00 0.00 88 1011.4
20260506145536 77 224 2.0 6.0 0.00 0.00 0.00 88 1011.5
20260506145038 77 170 3.0 7.0 0.00 0.00 0.00 89 1011.4
20260506144556 77 164 2.0 7.0 0.00 0.00 0.00 89 1011.4
20260506144035 77 0 0.0 4.0 0.00 0.00 0.00 90 1011.3
20260506143536 77 155 1.0 5.0 0.00 0.00 0.00 90 1011.2
20260506143053 77 171 1.0 6.0 0.00 0.00 0.00 90 1011.1
20260506142538 77 171 2.0 9.0 0.00 0.00 0.00 91 1011.0
20260506142039 76 155 2.0 9.0 0.00 0.00 0.00 90 1010.9
20260506141548 76 181 3.0 9.0 0.00 0.00 0.00 91 1010.9
20260506141038 76 165 2.0 7.0 0.00 0.00 0.00 91 1010.7
20260506140538 76 175 2.0 8.0 0.00 0.00 0.00 92 1010.7
20260506140047 76 192 3.0 8.0 0.00 0.00 0.00 92 1010.6
20260506135539 76 200 2.0 5.0 0.00 0.00 0.00 93 1010.6
20260506135037 76 155 2.0 4.0 0.00 0.00 0.00 93 1010.7
20260506134544 75 0 1.0 4.0 0.00 0.00 0.00 93 1010.8
20260506134036 75 171 1.0 4.0 0.00 0.00 0.00 93 1010.7
20260506133539 75 105 0.0 3.0 0.00 0.00 0.00 93 1010.7
20260506133102 75 0 1.0 3.0 0.00 0.00 0.00 93 1010.6
20260506132539 75 105 1.0 3.0 0.00 0.00 0.00 93 1010.6
20260506132040 75 0 0.0 0.0 0.00 0.00 0.00 93 1010.5
20260506131548 75 0 0.0 0.0 0.00 0.00 0.00 93 1010.6
20260506131039 75 0 0.0 4.0 0.00 0.00 0.00 93 1010.7
20260506130539 75 0 0.0 4.0 0.00 0.00 0.00 93 1010.6
20260506130048 75 168 1.0 4.0 0.00 0.00 0.00 93 1010.5
20260506125539 75 107 1.0 3.0 0.00 0.00 0.00 93 1010.4
20260506125038 74 0 0.0 0.0 0.00 0.00 0.00 93 1010.4
20260506124546 74 0 0.0 0.0 0.00 0.00 0.00 93 1010.4
20260506124036 74 0 0.0 0.0 0.00 0.00 0.00 93 1010.4
20260506123536 74 0 0.0 0.0 0.00 0.00 0.00 93 1010.4
20260506123047 74 0 0.0 0.0 0.00 0.00 0.00 93 1010.4
20260506122536 74 0 0.0 0.0 0.00 0.00 0.00 93 1010.4
20260506122036 74 0 0.0 0.0 0.00 0.00 0.00 93 1010.4
20260506121550 74 0 0.0 0.0 0.00 0.00 0.00 93 1010.4
20260506121036 74 0 0.0 0.0 0.00 0.00 0.00 93 1010.3
20260506120536 74 0 0.0 0.0 0.00 0.00 0.00 93 1010.3
20260506120052 74 0 0.0 0.0 0.00 0.00 0.00 93 1010.4
20260506115539 74 0 0.0 0.0 0.00 0.00 0.00 93 1010.4
20260506115040 74 0 0.0 2.0 0.00 0.00 0.00 93 1010.2
20260506114549 74 0 0.0 2.0 0.00 0.00 0.00 93 1010.1
20260506114039 74 0 0.0 1.0 0.00 0.00 0.00 93 1010.0
20260506113536 74 0 0.0 0.0 0.00 0.00 0.00 93 1010.0
20260506113049 74 0 0.0 0.0 0.00 0.00 0.00 93 1009.9
20260506112536 74 0 0.0 0.0 0.00 0.00 0.00 93 1009.8
20260506112038 74 0 0.0 0.0 0.00 0.00 0.00 92 1009.8
20260506111551 74 0 0.0 0.0 0.00 0.00 0.00 92 1009.7
20260506111039 73 0 0.0 0.0 0.00 0.00 0.00 92 1009.9
20260506110536 73 0 0.0 0.0 0.00 0.00 0.00 92 1009.8
20260506110046 73 0 0.0 0.0 0.00 0.00 0.00 92 1009.7
20260506105536 73 0 0.0 0.0 0.00 0.00 0.00 92 1009.7
20260506105040 73 0 0.0 0.0 0.00 0.00 0.00 92 1009.6
20260506104610 74 0 0.0 0.0 0.00 0.00 0.00 92 1009.4
20260506104039 74 0 0.0 0.0 0.00 0.00 0.00 92 1009.4
20260506103540 74 0 0.0 0.0 0.00 0.00 0.00 92 1009.3
20260506103046 74 0 0.0 0.0 0.00 0.00 0.00 92 1009.4
20260506102537 74 0 0.0 0.0 0.00 0.00 0.00 92 1009.4
20260506102038 74 0 0.0 0.0 0.00 0.00 0.00 92 1009.4
20260506101549 74 0 0.0 0.0 0.00 0.00 0.00 92 1009.3
20260506101036 74 0 0.0 0.0 0.00 0.00 0.00 92 1009.3
20260506100538 74 0 0.0 1.0 0.00 0.00 0.00 92 1009.2
20260506100046 74 0 0.0 1.0 0.00 0.00 0.00 92 1009.4
20260506095536 74 0 0.0 0.0 0.00 0.00 0.00 92 1009.2
20260506095035 74 0 0.0 0.0 0.00 0.00 0.00 92 1009.1
20260506094546 74 0 0.0 0.0 0.00 0.00 0.00 92 1009.0
20260506094038 74 0 0.0 0.0 0.00 0.00 0.00 91 1009.2
20260506093539 74 0 0.0 0.0 0.00 0.00 0.00 91 1009.2
20260506093051 74 0 0.0 0.0 0.00 0.00 0.00 91 1009.2
20260506092539 74 0 0.0 0.0 0.00 0.00 0.00 91 1009.2
20260506092039 74 0 0.0 0.0 0.00 0.00 0.00 91 1009.3
20260506091548 74 0 0.0 1.0 0.00 0.00 0.00 91 1009.2
20260506091037 74 0 0.0 3.0 0.00 0.00 0.00 91 1009.2
20260506090539 74 0 0.0 3.0 0.00 0.00 0.00 91 1009.1
20260506090050 74 0 0.0 3.0 0.00 0.00 0.00 91 1009.0
20260506085538 74 174 0.0 0.0 0.00 0.00 0.00 91 1009.1
20260506085036 74 0 0.0 0.0 0.00 0.00 0.00 91 1009.1
20260506084550 74 0 0.0 0.0 0.00 0.00 0.00 91 1009.2
20260506084035 74 0 0.0 0.0 0.00 0.00 0.00 91 1009.1
20260506083536 74 0 0.0 0.0 0.00 0.00 0.00 91 1009.1
20260506083052 74 0 0.0 0.0 0.00 0.00 0.00 91 1009.2
20260506082537 74 0 0.0 0.0 0.00 0.00 0.00 91 1009.1
20260506082036 74 0 0.0 0.0 0.00 0.00 0.00 91 1009.1
20260506081558 74 0 0.0 2.0 0.00 0.00 0.00 91 1009.1
20260506081039 74 0 0.0 6.0 0.00 0.00 0.00 91 1009.1
20260506080536 74 174 1.0 6.0 0.00 0.00 0.00 91 1009.1
20260506073051 74 146 3.0 8.0 0.00 0.00 0.00 91 1009.0
20260506072536 74 148 3.0 7.0 0.00 0.00 0.00 91 1008.9
20260506072040 74 134 4.0 7.0 0.00 0.00 0.00 91 1009.0
20260506071552 74 160 3.0 7.0 0.00 0.00 0.00 91 1009.0
20260506071036 74 159 3.0 9.0 0.00 0.00 0.00 91 1009.1
20260506070536 74 155 4.0 9.0 0.00 0.00 0.00 91 1009.1
20260506062036 75 138 4.0 10.0 0.00 0.00 0.00 90 1009.1
20260506061551 75 115 4.0 8.0 0.00 0.00 0.00 89 1009.3
20260506061039 75 158 3.0 8.0 0.00 0.00 0.00 89 1009.3
20260506060539 75 134 4.0 11.0 0.00 0.00 0.00 89 1009.3
20260506051036 75 147 5.0 12.0 0.00 0.00 0.00 88 1009.5
20260506050536 75 169 5.0 12.0 0.00 0.00 0.00 88 1009.5
20260506045036 76 171 5.0 14.0 0.00 0.00 0.00 87 1009.2
20260506044604 76 175 6.0 14.0 0.00 0.00 0.00 87 1009.1
20260506044037 76 175 4.0 11.0 0.00 0.00 0.00 87 1009.0
20260506043539 76 120 4.0 13.0 0.00 0.00 0.00 87 1009.0